Regional Weather Roundup
Issued by NWS Upton, NY

Current Version | Previous Version | Text Only | Print | Product List | Glossary On
Versions: 1 2 3 4 5 6 7 8 9 10 11 12 13 14 15 16 17 18 19 20 21 22 23 24 25 26 27
000
ASUS41 KOKX 211809
RWROKX

Regional Weather Roundup
National Weather Service New York NY
100 PM EST SUN JAN 21 2018

Note: "FAIR" indicates few or no clouds below 12,000 feet with no
significant weather and/or obstructions to visibility.

NYZ071-072-176-178-NJZ106-104-211900-
New York City Metro Area

CITY           SKY/WX    TMP DP  RH WIND       PRES   REMARKS
Central Park   FAIR      48  29  47 W5        30.17F
Bronx Bot Gard   N/A     48  30  49 N6        30.15S
Bronx Lehman C   N/A     46  30  53 W5          N/A
LaGuardia Arpt PTSUNNY   48  29  47 NW5       30.14F
Queens College   N/A     48  30  49 N5          N/A
Kennedy Intl   PTSUNNY   49  29  46 NW6       30.16F
Breezy Point     N/A     45 N/A N/A SW7         N/A
Brooklyn Coll    N/A     48  30  49 NW8         N/A
Staten Island    N/A     48  32  53 NW6         N/A
Newark/Liberty PTSUNNY   52  29  41 W9        30.15F
Teterboro      FAIR      48  30  49 NW10      30.14F
$$

NYZ177-179-078>081-211900-
Long Island New York

CITY           SKY/WX    TMP DP  RH WIND       PRES   REMARKS
Jones Beach      N/A     46 N/A N/A W3          N/A
Wantagh          N/A     48  30  49 W6          N/A
Matinecock Pt    N/A     41 N/A N/A E2          N/A
Farmingdale    FAIR      49  29  46 W3        30.14F
MacArthur/ISP  CLOUDY    50  29  44 NW6       30.13F
Shirley        FAIR      49  31  49 N5        30.14F
Mt Sinai Harb    N/A    N/A N/A N/A NW2         N/A
Westhampton    FAIR      47  28  47 N8        30.15F
East Hampton   FAIR      45  29  53 N5        30.13F
Southold         N/A     43  30  61 W3          N/A
Montauk          N/A     44  31  60 W6        30.14F
$$

NYZ052-065-067-211900-
Hudson Valley

CITY           SKY/WX    TMP DP  RH WIND       PRES   REMARKS
White Plains   FAIR      45  29  53 NW6       30.13F
Larchmont Harb   N/A     37 N/A N/A E7          N/A  WCI  32
Croton On Huds   N/A     41 N/A N/A MISG        N/A
Somers           N/A     43  30  61 S3          N/A
Brewster         N/A     45  30  57 W2          N/A
Newburgh       PTSUNNY   45  30  57 CALM      30.15
Montgomery     FAIR      45  29  53 CALM      30.12F
Otisville        N/A     45  30  57 SW3         N/A
Warwick          N/A     45  30  57 NW8         N/A
Suffern          N/A     45  30  57 W3          N/A
Poughkeepsie   FAIR      43  28  55 SW3       30.14F
Albany         CLOUDY    40  29  64 W12       30.16F WCI  33
$$

NJZ001-105-106-008-010-013-015-019>022-104-211900-
New Jersey

CITY           SKY/WX    TMP DP  RH WIND       PRES   REMARKS
Newark/Liberty PTSUNNY   52  29  41 W9        30.15F
Teterboro      FAIR      48  30  49 NW10      30.14F
Caldwell       FAIR      48  29  47 VRB6      30.15F
Somerville     FAIR      50  34  54 VRB5      30.14F
Linden         FAIR      51  30  44 CALM      30.15F
Perth Amboy      N/A     48 N/A N/A W10         N/A
Sussex         FAIR      46  29  51 CALM      30.13F
Andover          N/A     46  30  53 CALM      30.14F
Trenton        PTSUNNY   51  36  56 NW8       30.16F
Millville      CLOUDY    52  39  61 W6        30.17F
Atlantic City  PTSUNNY   54  39  57 NW8       30.16F
Wrightstown    FAIR      52  37  55 NW9       30.13F
Toms River     FAIR      52  36  54 NW10G22   30.15F
Belmar         FAIR      50  32  50 W10       30.15F
$$

PAZ047>061-062-071-211900-
Eastern Pennsylvania

CITY           SKY/WX    TMP DP  RH WIND       PRES   REMARKS
Philadelphia   CLOUDY    52  36  54 NW3       30.17F
Allentown      CLOUDY    50  35  56 VRB7      30.15F
Scranton       CLOUDY    40  30  67 CALM      30.13F
$$

CTZ002-004>006-009-010-012-RIZ004-006-007-MAZ004-011-015-211900-
Southern New England

 In CT

CITY           SKY/WX    TMP DP  RH WIND       PRES   REMARKS
Bradley Intl   PTSUNNY   47  31  53 SE3       30.12F
Hartford       FAIR      47  31  53 CALM      30.13F
Danbury        FAIR      46  30  53 CALM      30.13F
Wtrbury/Oxford FAIR      44  30  57 NW6       30.12F
Norwalk Harbor   N/A     37 N/A N/A S7          N/A  WCI  32
Bridgeport     FAIR      42  29  59 SW9       30.15F
Meriden        FAIR      47  32  56 CALM      30.13F
New Haven      FAIR      46  30  53 CALM      30.13F
Chester        FAIR      48  30  49 NW8       30.12F
Groton         FAIR      49  30  48 CALM      30.12F
Willimantic    FAIR      48  31  51 VRB3      30.12F

 In RI

CITY           SKY/WX    TMP DP  RH WIND       PRES   REMARKS
Providence     FAIR      50  31  48 N5        30.12F
Block Island   FAIR      45  31  58 W5        30.13F
Westerly       FAIR      50  31  48 VRB3      30.12F

In MA

CITY           SKY/WX    TMP DP  RH WIND       PRES   REMARKS
Boston         FAIR      48  30  49 W7        30.11F
Worcester      PTSUNNY   43  27  53 W7        30.09F
Westfield      FAIR      46  30  53 CALM      30.11F
Provincetown   FAIR      44  34  67 NW7       30.11F
Nantucket      FAIR      48  32  53 NW5       30.11F
$$

ANZ330-335-338-340-345-350-353-355-211900-
Coastal Marine Observations


STATION/POSITION TIME  SKY/WX   TEMP    WIND        PRES    VSBY  WAVE
                                AIR SEA DIR/SP/G                  HT/PER
                 (UTC)          (F)     (DEG/KT/KT) (MB)    (MI)  (FT/S)
NY Harb Entrance 1650            41 39  280/ 10/ 10 1021.5          2/ 7
20 S Fire Island 1650            41 41  300/ 10/ 10 1021.7          3/ 7
15 E Barnegat Li 1730               42                N/A           3/ 7
Hudson Canyon    1750            47 49  330/  8/ 10 1020.8          3/ 7
Kings Point      1748            45 33   60/  2/  4 1021.8
Execution Rocks  NOT AVBL
Western LI Sound NOT AVBL
Central LI Sound 1730            37     250/  6/  6   N/A           0
Robbins Reef     1748            47     300/  5/  7 1021.7
$$


>>>>>>>>>>>>>>>>>>>>>>>>>>>> KEY <<<<<<<<<<<<<<<<<<<<<<<<<<<
>                                                          <
>     SKY/WX - Sky Condition/Present Weather               <
>     TMP    - Temperature in Fahrenheit                   <
>     DP     - Dew Point in Fahrenheit                     <
>     RH     - Relative Humidity in Percent                <
>     WIND   - Direction (from) and Speed in MPH           <
>     PRES   - Mean Sea Level Pressure (inches of Hg)      <
>     WCI    - Wind Chill Index                            <
>     VSB    - Visibility in Miles                         <
>     HX     - Heat Index                                  <
>     TC     - Temperature in Celsius                      <
>     VRB    - Varibale Wind Direction                     <
>                                                          <
>>>>>>>>>>>>>>>>>>>>>>>>>>>> KEY <<<<<<<<<<<<<<<<<<<<<<<<<<<




USA.gov is the U.S. government's official web portal to all federal, state and local government web resources and services.